Tracking 32571 objects as of 17-Dec-2025
HD Live streaming from Space Station
objects crossing your sky now

STARLINK-5012

Track STARLINK-5012 now!
10-day predictions
STARLINK-5012 is classified as:


NORAD ID: 53918
Int'l Code: 2022-119AJ
Perigee: 545.9 km
Apogee: 547.8 km
Inclination: 53.2 °
Period: 95.4 minutes
Semi major axis: 6917 km
RCS: Unknown
Launch date: September 24, 2022
Source: United States (US)
Launch site: AIR FORCE EASTERN TEST RANGE (AFETR)
Your satellite tracking list
Your tracking list is empty




NASA's NSSDC Master Catalog

Two Line Element Set (TLE):
1 53918U 22119AJ  25350.34280584  .00000249  00000-0  33739-4 0  9994
2 53918  53.2181 328.1866 0001346  89.6482 270.4664 15.08844724179248
Source of the keplerian elements: AFSPC